Location: Ellerstadt
(49.4644°N, 8.2615°E)
Time: 14:40:52
(UTC+00:00)

Altair - Pass Details

Date: 16 June 2021
Orbit: 1502 x 1682 km, 47.2° (Epoch: 02 August)

Event Time Altitude Azimuth Distance (km) Brightness Sun altitude
Rises 21:13:00 0° 288° (WNW) 4,882 11.0 -11.2°
Reaches altitude 10° 21:17:22 10° 272° (W) 3,915 10.1 -11.6°
Maximum altitude 21:23:36 19° 233° (SW) 3,282 9.1 -12.1°
Drops below altitude 10° 21:29:54 10° 193° (SSW) 3,936 9.2 -12.6°
Enters shadow 21:31:23 - 187° (S) 4,236 9.3 -12.7°
